Details From KCKB - Harrison Marion Rgnl
To KCRW - Yeager
Flight Number -
Tags Generated
Created
Modified
Stats Distance 84 nm / 156 km
Max Altitude 0 ft / 0 m
Waypoints 2
Social Downloads 1
Likes 0
Share VATSIM

Download

Looking for another format? Having issues loading an existing format? Contact us
Advertisement - Login to hide

Notes

Generated

Route

KCKB KCRW

ID Type Via Altitude Latitude Longitude Leg Dist Tot Dist Heading (true) Name
O KCKB APT - 0 ft / 0 m 39.28779˚ -80.23288˚ - 0 nm - -
O KCRW APT - 0 ft / 0 m 38.37517˚ -81.59776˚ 84 nm 84 nm 230° / 229° -

Altitude Profile

Advertisement - Login to hide

KCKB

Details ICAO KCKB (CKB)
Name HARRISON MARION RGNL
Region United States
Timezone America/New_York (UTC-4.0)
Stats Elevation 1,217 ft / 371 m (AMSL)
Location 39.296642° -80.228080°
Runways 1
Magnetic Variation 8.920° W

METAR

KCKB 211300Z 00000KT 10SM SCT006 OVC044 20/18 A3020 RMK AO2 T02000178

Decode

TAF

TAF KCKB 211138Z 2112/2212 VRB03KT P6SM SCT045 FM211600 08004KT P6SM SCT040 FM212000 15004KT P6SM SCT050 FM220100 00000KT P6SM BKN250

Decode

Departure Runways

ID Width Length Bearing (true) Bearing (mag) Surface Threshold Offset Overrun Length
03 151 ft / 46 m 7,008 ft / 2,136 m 22.75° 31.67° Asphalt 0 ft / 0 m 0 ft / 0 m
21 151 ft / 46 m 7,008 ft / 2,136 m 202.75° 211.67° Asphalt 0 ft / 0 m 0 ft / 0 m

KCRW

Details ICAO KCRW (CRW)
Name Charleston Yeager
Region United States
Timezone America/New_York (UTC-4.0)
Stats Elevation 981 ft / 299 m (AMSL)
Location 38.372770° -81.593115°
Runways 2
Magnetic Variation 7.825° W

METAR

KCRW 211254Z 00000KT 7SM FEW020 FEW100 SCT250 21/19 A3015 RMK AO2 SLP203 T02110194

Decode

TAF

TAF KCRW 211138Z 2112/2212 00000KT 4SM BR SCT002 FM211300 00000KT P6SM SCT250 FM211600 10004KT P6SM SCT045 FM212000 11005KT P6SM VCTS SCT050CB FM220100 00000KT P6SM BKN100 FM220800 00000KT 4SM BR BKN140

Decode

Destination Runways

ID Width Length Bearing (true) Bearing (mag) Surface Threshold Offset Overrun Length
05 150 ft / 46 m 6,300 ft / 1,920 m 47.01° 54.84° Asphalt 0 ft / 0 m 200 ft / 61 m
15 150 ft / 46 m 4,753 ft / 1,449 m 141.48° 149.31° Asphalt 0 ft / 0 m 0 ft / 0 m
23 150 ft / 46 m 6,300 ft / 1,920 m 227.02° 234.85° Asphalt 0 ft / 0 m 200 ft / 61 m
33 150 ft / 46 m 4,753 ft / 1,449 m 321.49° 329.32° Asphalt 0 ft / 0 m 0 ft / 0 m

Approach Navaids

Runway Type Ident Frequency Range Bearing (true) Bearing (mag) Slope Elevation
05 Localiser IHCV 110.30 MHz 18 nm / 33 km 43.57° 51.40° - 981 ft / 299 m (AMSL)
05 Glidescope IHCV 110.30 MHz 10 nm / 19 km 47.02° 54.84° 3.00° 947 ft / 289 m (AMSL)
05 DME IHCV 110.30 MHz 18 nm / 33 km - - - 947 ft / 289 m (AMSL)
23 Localiser ICRW 110.30 MHz 18 nm / 33 km 228.98° 236.80° - 945 ft / 288 m (AMSL)
23 Glidescope ICRW 110.30 MHz 10 nm / 19 km 227.01° 234.84° 3.00° 867 ft / 264 m (AMSL)
23 DME ICRW 110.30 MHz 18 nm / 33 km - - - 981 ft / 299 m (AMSL)